| time (UTC) | temp C | wind direction | speed KPH | gust KPH | rain 1hr cm | rain 24hr cm | rain mn cm | humidity % | barometer mb |
| 20260503150224 | 12 | 108 | 4.8 | 6.4 | 0.03 | 0.00 | 0.00 | 98 | 1022.0 |
| 20260503140219 | 15 | 121 | 4.8 | 6.4 | 0.00 | 0.00 | 0.00 | 98 | 1022.0 |
| 20260503131216 | 10 | 118 | 6.4 | 8.0 | 0.00 | 0.00 | 0.00 | 98 | 1021.0 |
| 20260503130215 | 14 | 118 | 6.4 | 8.0 | 0.00 | 0.00 | 0.00 | 98 | 1021.0 |
| 20260503120210 | 14 | 126 | 6.4 | 8.0 | 0.00 | 0.00 | 0.00 | 99 | 1021.0 |
| 20260503110206 | 15 | 119 | 4.8 | 8.0 | 0.00 | 0.00 | 0.00 | 99 | 1020.0 |
| 20260503100202 | 13 | 115 | 4.8 | 6.4 | 0.00 | 0.00 | 0.00 | 97 | 1019.0 |
| 20260503090157 | 13 | 100 | 1.6 | 4.8 | 0.00 | 0.00 | 0.00 | 97 | 1018.0 |
| 20260503081153 | 15 | 112 | 1.6 | 4.8 | 0.00 | 0.00 | 0.00 | 97 | 1019.0 |
| 20260503080153 | 13 | 112 | 1.6 | 4.8 | 0.00 | 0.00 | 0.00 | 97 | 1019.0 |
| 20260503072150 | 14 | 105 | 1.6 | 4.8 | 0.00 | 0.00 | 0.00 | 96 | 1019.0 |
| 20260503071149 | 12 | 105 | 1.6 | 4.8 | 0.00 | 0.00 | 0.00 | 96 | 1019.0 |
| 20260503070148 | 11 | 105 | 1.6 | 4.8 | 0.00 | 0.00 | 0.00 | 96 | 1019.0 |
| 20260503060144 | 12 | 97 | 1.6 | 1.6 | 0.00 | 0.00 | 0.00 | 96 | 1020.0 |
| 20260503054142 | 14 | 97 | 1.6 | 1.6 | 0.00 | 0.00 | 0.00 | 97 | 1020.0 |
| 20260503053141 | 12 | 97 | 1.6 | 3.2 | 0.00 | 0.00 | 0.00 | 97 | 1020.0 |
| 20260503052141 | 15 | 109 | 1.6 | 1.6 | 0.00 | 0.00 | 0.00 | 97 | 1021.0 |
| 20260503051140 | 13 | 109 | 1.6 | 1.6 | 0.00 | 0.00 | 0.00 | 97 | 1021.0 |
| 20260503050139 | 11 | 109 | 1.6 | 3.2 | 0.00 | 0.00 | 0.00 | 97 | 1021.0 |
| 20260503045139 | 15 | 109 | 1.6 | 3.2 | 0.00 | 0.00 | 0.00 | 97 | 1021.0 |
| 20260503044138 | 15 | 103 | 4.8 | 6.4 | 0.00 | 0.00 | 0.00 | 98 | 1021.0 |
| 20260503043137 | 13 | 103 | 4.8 | 6.4 | 0.00 | 0.00 | 0.00 | 98 | 1021.0 |
| 20260503042137 | 12 | 103 | 4.8 | 6.4 | 0.00 | 0.00 | 0.00 | 98 | 1022.0 |
| 20260503041136 | 10 | 103 | 4.8 | 6.4 | 0.00 | 0.00 | 0.00 | 98 | 1022.0 |
| 20260503040135 | 15 | 103 | 4.8 | 6.4 | 0.00 | 0.00 | 0.00 | 96 | 1022.0 |
| 20260503035135 | 13 | 103 | 4.8 | 6.4 | 0.00 | 0.00 | 0.00 | 96 | 1022.0 |
| 20260503034134 | 15 | 103 | 4.8 | 8.0 | 0.00 | 0.00 | 0.00 | 96 | 1022.0 |
| 20260503033133 | 13 | 103 | 4.8 | 8.0 | 0.00 | 0.00 | 0.00 | 96 | 1022.0 |
| 20260503032132 | 13 | 103 | 4.8 | 8.0 | 0.00 | 0.00 | 0.00 | 96 | 1022.0 |
| 20260503031132 | 11 | 103 | 4.8 | 8.0 | 0.00 | 0.00 | 0.00 | 96 | 1022.0 |
| 20260503030131 | 15 | 103 | 4.8 | 8.0 | 0.00 | 0.00 | 0.00 | 97 | 1022.0 |
| 20260503025130 | 13 | 103 | 4.8 | 8.0 | 0.00 | 0.00 | 0.00 | 97 | 1022.0 |
| 20260503024129 | 12 | 103 | 4.8 | 8.0 | 0.00 | 0.00 | 0.00 | 97 | 1022.0 |
| 20260503023129 | 10 | 103 | 4.8 | 8.0 | 0.00 | 0.00 | 0.00 | 97 | 1022.0 |
| 20260503022127 | 15 | 102 | 3.2 | 6.4 | 0.00 | 0.00 | 0.00 | 95 | 1021.0 |
| 20260503021127 | 14 | 102 | 1.6 | 6.4 | 0.00 | 0.00 | 0.00 | 95 | 1021.0 |
| 20260503020126 | 12 | 102 | 1.6 | 6.4 | 0.00 | 0.00 | 0.00 | 95 | 1021.0 |
| 20260503015125 | 11 | 102 | 3.2 | 6.4 | 0.00 | 0.00 | 0.00 | 95 | 1021.0 |
| 20260503014124 | 15 | 126 | 1.6 | 1.6 | 0.00 | 0.00 | 0.00 | 94 | 1021.0 |
| 20260503013123 | 13 | 126 | 1.6 | 1.6 | 0.00 | 0.00 | 0.00 | 94 | 1021.0 |
| 20260503012123 | 11 | 126 | 1.6 | 3.2 | 0.00 | 0.00 | 0.00 | 94 | 1021.0 |
| 20260503011122 | 13 | 126 | 1.6 | 1.6 | 0.00 | 0.00 | 0.00 | 96 | 1021.0 |
| 20260503010121 | 12 | 126 | 1.6 | 3.2 | 0.00 | 0.00 | 0.00 | 96 | 1021.0 |
| 20260503005120 | 12 | 126 | 1.6 | 3.2 | 0.00 | 0.00 | 0.00 | 96 | 1021.0 |
| 20260503004120 | 15 | 126 | 1.6 | 3.2 | 0.00 | 0.00 | 0.00 | 94 | 1021.0 |
| 20260503003119 | 15 | 88 | 1.6 | 1.6 | 0.00 | 0.00 | 0.00 | 95 | 1021.0 |
| 20260503002118 | 13 | 88 | 1.6 | 1.6 | 0.00 | 0.00 | 0.00 | 95 | 1020.0 |
| 20260503001117 | 12 | 88 | 1.6 | 3.2 | 0.00 | 0.00 | 0.00 | 95 | 1020.0 |
| 20260503000117 | 14 | 88 | 1.6 | 3.2 | 0.00 | 0.00 | 0.00 | 95 | 1020.0 |
| 20260502235116 | 14 | 88 | 1.6 | 1.6 | 0.00 | 0.00 | 0.00 | 95 | 1020.0 |
| 20260502234115 | 12 | 88 | 1.6 | 3.2 | 0.00 | 0.00 | 0.00 | 95 | 1020.0 |
| 20260502233114 | 15 | 88 | 1.6 | 3.2 | 0.00 | 0.00 | 0.00 | 96 | 1020.0 |
| 20260502232114 | 15 | 101 | 1.6 | 8.0 | 0.00 | 0.00 | 0.00 | 95 | 1019.0 |
| 20260502231113 | 13 | 101 | 1.6 | 8.0 | 0.00 | 0.00 | 0.00 | 95 | 1019.0 |
| 20260502230112 | 13 | 101 | 1.6 | 8.0 | 0.00 | 0.00 | 0.00 | 95 | 1019.0 |
| 20260502225112 | 11 | 101 | 3.2 | 8.0 | 0.00 | 0.00 | 0.00 | 95 | 1019.0 |
| 20260502224111 | 15 | 105 | 4.8 | 8.0 | 0.00 | 0.00 | 0.00 | 97 | 1019.0 |
| 20260502223110 | 13 | 105 | 4.8 | 8.0 | 0.00 | 0.00 | 0.00 | 97 | 1019.0 |
| 20260502222110 | 12 | 105 | 4.8 | 8.0 | 0.00 | 0.00 | 0.00 | 97 | 1018.0 |
| 20260502221109 | 10 | 105 | 4.8 | 8.0 | 0.00 | 0.00 | 0.00 | 97 | 1018.0 |
| 20260502220108 | 14 | 105 | 4.8 | 8.0 | 0.00 | 0.00 | 0.00 | 97 | 1018.0 |
| 20260502215108 | 12 | 105 | 4.8 | 8.0 | 0.00 | 0.00 | 0.00 | 97 | 1018.0 |
| 20260502214107 | 14 | 105 | 4.8 | 8.0 | 0.00 | 0.00 | 0.00 | 97 | 1018.0 |
| 20260502213106 | 12 | 105 | 4.8 | 8.0 | 0.00 | 0.00 | 0.00 | 97 | 1018.0 |
| 20260502212105 | 15 | 108 | 4.8 | 8.0 | 0.00 | 0.00 | 0.00 | 98 | 1018.0 |
| 20260502211105 | 13 | 108 | 4.8 | 8.0 | 0.00 | 0.00 | 0.00 | 98 | 1018.0 |
| 20260502210104 | 11 | 108 | 4.8 | 8.0 | 0.00 | 0.00 | 0.00 | 98 | 1018.0 |
| 20260502205103 | 11 | 108 | 4.8 | 8.0 | 0.00 | 0.00 | 0.00 | 98 | 1018.0 |
| 20260502204103 | 15 | 116 | 6.4 | 8.0 | 0.00 | 0.00 | 0.00 | 98 | 1018.0 |
| 20260502203102 | 13 | 116 | 6.4 | 8.0 | 0.00 | 0.00 | 0.00 | 98 | 1018.0 |
| 20260502202101 | 12 | 116 | 6.4 | 9.7 | 0.00 | 0.00 | 0.00 | 98 | 1018.0 |
| 20260502201101 | 15 | 116 | 6.4 | 9.7 | 0.00 | 0.00 | 0.00 | 95 | 1018.0 |
| 20260502200100 | 15 | 116 | 6.4 | 8.0 | 0.00 | 0.00 | 0.00 | 95 | 1018.0 |